Philadelphia Wings Airport, PA

7:56 AM EST on December 09, 2019 (GMT -0500)
Philadelphia Wings Airport

Weather History for KLOM - November, 2019

Change the Weather History Date:

Saturday, November 16, 2019

  Actual Average (KPNE) Record (KPNE)
Temperature  
Mean Temperature 32 °F -  
Max Temperature 41 °F 52 °F 75 °F (2005)
Min Temperature 24 °F 34 °F 21 °F (1996)
Degree Days  
Heating Degree Days 32    
Moisture  
Dew Point 12 °F    
Average Humidity 44    
Maximum Humidity 87    
Minimum Humidity 16    
Precipitation  
Precipitation 0.00 in - - ()
Sea Level Pressure  
Sea Level Pressure 30.38 in    
Wind  
Wind Speed 6 mph (NE)    
Max Wind Speed 16 mph    
Max Gust Speed 26 mph    
Visibility 10 miles    
Events      
Averages and records for this station are not official NWS values.
T = Trace of Precipitation, MM = Missing Value Source: NWS Daily Summary

Daily Weather History Graph

Daily Weather History Graph

Search for Another Location

Airport or City:

Astronomy

Nov. 16, 2019 Rise Set
Actual Time 6:47 AM EST 4:43 PM EST
Civil Twilight 6:18 AM EST 5:12 PM EST
Nautical Twilight 5:45 AM EST 5:45 PM EST
Astronomical Twilight 5:13 AM EST 6:17 PM EST
Moon 8:14 PM EST (11/16) 10:39 AM EST (11/16)
Length of Visible Light 10h 54m
Length of Day
9h 56m
Waning Gibbous, 82% of the Moon is Illuminated
Nov 16
Waning Gibbous
Nov 19
Last Quarter
Nov 26
New
Dec 4
First Quarter
Dec 12
Full

Hourly Weather History & Observations

Time (EST) Temp. Windchill Dew Point Humidity Pressure Visibility Wind Dir Wind Speed Gust Speed Precip Events Conditions
12:15 AM 37.9 °F 34.4 °F 28.0 °F 68% 30.25 in 10.0 mi North 4.6 mph - N/A   Clear
12:35 AM 37.6 °F 35.1 °F 27.7 °F 67% 30.25 in 10.0 mi North 3.5 mph - N/A   Clear
12:55 AM 37.0 °F 31.6 °F 27.3 °F 68% 30.25 in 10.0 mi NNW 6.9 mph - N/A   Clear
1:15 AM 37.2 °F 32.6 °F 26.1 °F 64% 30.25 in 10.0 mi NNW 5.8 mph - N/A   Clear
1:55 AM 36.1 °F 31.4 °F 24.4 °F 63% 30.26 in 10.0 mi North 5.8 mph - N/A   Clear
2:15 AM 35.4 °F 32.6 °F 24.4 °F 64% 30.26 in 10.0 mi North 3.5 mph - N/A   Clear
2:35 AM 34.3 °F 31.4 °F 24.3 °F 67% 30.26 in 10.0 mi North 3.5 mph - N/A   Clear
2:55 AM 34.0 °F - 24.4 °F 68% 30.27 in 10.0 mi Calm Calm - N/A   Clear
3:15 AM 31.8 °F 27.3 °F 24.6 °F 75% 30.27 in 10.0 mi North 4.6 mph - N/A   Clear
3:35 AM 34.2 °F - 24.6 °F 68% 30.28 in 10.0 mi Calm Calm - N/A   Clear
3:55 AM 34.3 °F 31.4 °F 24.1 °F 66% 30.28 in 10.0 mi NNE 3.5 mph - N/A   Clear
4:15 AM 33.1 °F 30.0 °F 24.3 °F 70% 30.29 in 10.0 mi North 3.5 mph - N/A   Clear
4:35 AM 29.5 °F - 24.3 °F 81% 30.29 in 10.0 mi Calm Calm - N/A   Clear
5:15 AM 30.4 °F 26.9 °F 24.4 °F 79% 30.31 in 10.0 mi North 3.5 mph - N/A   Clear
5:35 AM 32.2 °F 27.7 °F 24.3 °F 73% 30.32 in 10.0 mi North 4.6 mph - N/A   Clear
5:55 AM 33.4 °F 30.4 °F 24.1 °F 69% 30.34 in 10.0 mi NNE 3.5 mph - N/A   Clear
6:15 AM 33.8 °F 30.8 °F 23.4 °F 66% 30.35 in 10.0 mi North 3.5 mph - N/A   Clear
6:35 AM 33.4 °F 27.3 °F 22.6 °F 65% 30.36 in 10.0 mi North 6.9 mph - N/A   Clear
6:55 AM 33.3 °F 28.9 °F 21.6 °F 62% 30.38 in 10.0 mi NNE 4.6 mph - N/A   Scattered Clouds
7:15 AM 33.4 °F 28.1 °F 21.4 °F 61% 30.38 in 10.0 mi NNE 5.8 mph - N/A   Mostly Cloudy
7:35 AM 33.6 °F 28.4 °F 21.0 °F 60% 30.39 in 10.0 mi North 5.8 mph - N/A   Mostly Cloudy
7:55 AM 34.5 °F 27.9 °F 20.8 °F 57% 30.40 in 10.0 mi NNE 8.1 mph - N/A   Mostly Cloudy
8:15 AM 35.4 °F 26.4 °F 20.5 °F 55% 30.41 in 10.0 mi NNE 13.8 mph 20.7 mph N/A   Scattered Clouds
8:35 AM 36.0 °F 26.3 °F 9.1 °F 33% 30.41 in 10.0 mi NE 16.1 mph 24.2 mph N/A   Clear
8:55 AM 36.0 °F 28.0 °F 7.0 °F 30% 30.42 in 10.0 mi NE 11.5 mph 18.4 mph N/A   Clear
9:15 AM 36.1 °F 27.3 °F 5.9 °F 28% 30.42 in 10.0 mi NE 13.8 mph 19.6 mph N/A   Clear
9:35 AM 36.3 °F 26.8 °F 6.1 °F 28% 30.42 in 10.0 mi ENE 16.1 mph 26.5 mph N/A   Clear
9:55 AM 36.9 °F 27.8 °F 4.8 °F 26% 30.42 in 10.0 mi ENE 15.0 mph 21.9 mph N/A   Clear
10:15 AM 37.6 °F 30.0 °F 6.4 °F 27% 30.43 in 10.0 mi NE 11.5 mph 21.9 mph N/A   Clear
10:35 AM 38.5 °F 30.7 °F 6.3 °F 26% 30.43 in 10.0 mi NNE 12.7 mph 19.6 mph N/A   Clear
10:55 AM 38.8 °F 32.6 °F 6.1 °F 26% 30.43 in 10.0 mi NE 9.2 mph - N/A   Clear
11:15 AM 38.8 °F 31.2 °F 5.0 °F 24% 30.43 in 10.0 mi NE 12.7 mph 19.6 mph N/A   Clear
11:35 AM 39.7 °F 31.2 °F 3.2 °F 22% 30.42 in 10.0 mi ENE 16.1 mph 20.7 mph N/A   Clear
11:55 AM 40.6 °F 33.0 °F 3.7 °F 22% 30.42 in 10.0 mi ENE 13.8 mph 23.0 mph N/A   Clear
12:15 PM 40.8 °F 33.3 °F 4.1 °F 22% 30.42 in 10.0 mi ENE 13.8 mph 20.7 mph N/A   Clear
12:35 PM 40.3 °F 32.2 °F 2.7 °F 21% 30.42 in 10.0 mi NE 15.0 mph 21.9 mph N/A   Clear
12:55 PM 40.6 °F 34.8 °F 4.1 °F 22% 30.41 in 10.0 mi East 9.2 mph - N/A   Clear
1:15 PM 40.3 °F 33.9 °F 3.9 °F 22% 30.40 in 10.0 mi NE 10.4 mph 17.3 mph N/A   Clear
1:35 PM 40.5 °F 33.6 °F 4.1 °F 22% 30.40 in 10.0 mi ENE 11.5 mph 21.9 mph N/A   Clear
1:55 PM 41.5 °F 34.6 °F 4.3 °F 21% 30.39 in 10.0 mi NE 12.7 mph 19.6 mph N/A   Clear
2:15 PM 41.5 °F 34.6 °F 2.3 °F 20% 30.39 in 10.0 mi NE 12.7 mph 19.6 mph N/A   Clear
2:35 PM 40.8 °F 33.3 °F -0.8 °F 17% 30.39 in 10.0 mi ENE 13.8 mph 23.0 mph N/A   Clear
2:55 PM 40.5 °F 33.6 °F -2.2 °F 17% 30.40 in 10.0 mi ENE 11.5 mph 23.0 mph N/A   Clear
3:15 PM 40.5 °F 34.1 °F -2.4 °F 16% 30.40 in 10.0 mi ENE 10.4 mph 19.6 mph N/A   Clear
3:35 PM 39.7 °F 33.2 °F -0.0 °F 19% 30.41 in 10.0 mi ENE 10.4 mph 16.1 mph N/A   Clear
3:55 PM 38.8 °F 31.2 °F -0.8 °F 19% 30.40 in 10.0 mi East 12.7 mph 19.6 mph N/A   Clear
4:15 PM 37.9 °F 30.5 °F 0.3 °F 21% 30.41 in 10.0 mi ENE 11.5 mph - N/A   Clear
4:35 PM 36.7 °F 30.5 °F 1.0 °F 22% 30.41 in 10.0 mi ENE 8.1 mph - N/A   Clear
4:55 PM 35.8 °F 30.1 °F 1.6 °F 24% 30.41 in 10.0 mi ENE 6.9 mph - N/A   Clear
5:15 PM 34.3 °F 29.2 °F 2.8 °F 27% 30.41 in 10.0 mi ENE 5.8 mph - N/A   Clear
5:35 PM 33.4 °F 28.1 °F 2.8 °F 27% 30.42 in 10.0 mi ENE 5.8 mph - N/A   Clear
5:55 PM 32.2 °F 28.9 °F 5.2 °F 32% 30.42 in 10.0 mi NE 3.5 mph - N/A   Clear
6:15 PM 28.8 °F - 11.5 °F 49% 30.43 in 10.0 mi Calm Calm - N/A   Clear
6:35 PM 27.3 °F - 14.0 °F 57% 30.43 in 10.0 mi Calm Calm - N/A   Clear
6:55 PM 26.6 °F - 14.0 °F 59% 30.44 in 10.0 mi Calm Calm - N/A   Clear
7:15 PM 25.5 °F - 17.2 °F 71% 30.44 in 10.0 mi Calm Calm - N/A   Clear
7:35 PM 26.1 °F - 13.3 °F 59% 30.44 in 10.0 mi Calm Calm - N/A   Clear
7:55 PM 24.3 °F - 20.8 °F 87% 30.43 in 10.0 mi Calm Calm - N/A   Clear
8:15 PM 25.9 °F - 11.1 °F 54% 30.42 in 10.0 mi Calm Calm - N/A   Clear
8:35 PM 30.0 °F 24.1 °F 6.3 °F 37% 30.42 in 10.0 mi North 5.8 mph - N/A   Clear
8:55 PM 30.9 °F 25.2 °F 5.4 °F 34% 30.41 in 10.0 mi NE 5.8 mph - N/A   Clear
9:15 PM 30.6 °F 23.8 °F 5.2 °F 34% 30.41 in 10.0 mi NNE 6.9 mph - N/A   Clear
9:35 PM 30.6 °F 23.8 °F 5.5 °F 35% 30.41 in 10.0 mi NE 6.9 mph - N/A   Clear
9:55 PM 30.4 °F 24.5 °F 5.9 °F 36% 30.40 in 10.0 mi NNE 5.8 mph - N/A   Clear
10:15 PM 30.4 °F 22.2 °F 6.1 °F 36% 30.40 in 10.0 mi NNE 9.2 mph - N/A   Clear
10:35 PM 30.2 °F 22.6 °F 5.5 °F 35% 30.41 in 10.0 mi NE 8.1 mph - N/A   Clear
10:55 PM 29.8 °F 24.9 °F 6.1 °F 37% 30.41 in 10.0 mi NNE 4.6 mph - N/A   Clear
11:15 PM 29.3 °F 24.3 °F 6.4 °F 38% 30.41 in 10.0 mi NE 4.6 mph - N/A   Clear
11:35 PM 29.1 °F 22.1 °F 6.3 °F 38% 30.41 in 10.0 mi NE 6.9 mph - N/A   Clear
11:55 PM 28.8 °F 21.7 °F 6.4 °F 39% 30.41 in 10.0 mi NE 6.9 mph - N/A   Clear